Torna al catalogo

FENGYUN 1C DEB

AttivoSSO
NORAD 36281·DEBRIS·🇨🇳 China

Lanciato May 10, 1999 da Taiyuan Satellite Launch Center

Loading…

Prossimi Passaggi (prossime 24 ore)

TLE

AggiornatoSource: Space-Track

Epoca: Sep 14, 2026, 12:58 UTC

1 36281U 99025DXJ 26257.54055382  .00002004  00000-0  20281-2 0  9990
2 36281  99.2531 170.4162 0286098 121.5577 241.3841 13.61676722882690

Traccia FENGYUN 1C DEB in tempo reale con AllMySat

Download on the App Store